Tracking 29892 objects as of 21-Nov-2024
HD Live streaming from Space Station
objects crossing your sky now

THOR AGENA B DEB

Track THOR AGENA B DEB now!
10-day predictions


NORAD ID: 1951
Int'l Code: 1965-098G
Perigee: 485.3 km
Apogee: 1,677.5 km
Inclination: 79.6 °
Period: 106.7 minutes
Semi major axis: 7452 km
RCS: 0.109 m2 (medium)
Launch date: November 29, 1965
Source: United States (US)
Launch site: AIR FORCE WESTERN TEST RANGE (AFWTR)

Note: This is SATELLITE DEBRIS
Your satellite tracking list
Your tracking list is empty




NASA's NSSDC Master Catalog

Two Line Element Set (TLE):
1 01951U 65098G   24325.64071650  .00009853  00000-0  19041-2 0  9991
2 01951  79.6155 194.8286 0799891 235.2136 117.1202 13.49467086729969
Source of the keplerian elements: AFSPC